CST,Max TemperatureF,Mean TemperatureF,Min TemperatureF,Max Dew PointF,MeanDew PointF,Min DewpointF,Max Humidity, Mean Humidity, Min Humidity, Max Sea Level PressureIn, Mean Sea Level PressureIn, Min Sea Level PressureIn, Max VisibilityMiles, Mean VisibilityMiles, Min VisibilityMiles, Max Wind SpeedMPH, Mean Wind SpeedMPH, Max Gust SpeedMPH,PrecipitationIn, CloudCover, Events, WindDirDegrees
2013-2-1,17,8,-2,12,-1,-11,79,69,56,30.40,30.28,30.13,10,10,8,21,11,16,0.00,3,,225
2013-2-2,24,18,12,19,10,5,86,75,62,30.13,30.09,30.01,10,9,2,21,10,25,0.00,5,,293
2013-2-3,23,18,14,16,12,9,86,75,63,30.11,30.04,29.96,10,9,2,23,10,29,0.00,5,,265
2013-2-4,26,19,12,18,14,7,86,75,63,30.01,29.93,29.82,10,10,5,21,11,23,0.00,2,,48
2013-2-5,33,22,12,27,19,7,86,77,64,30.12,29.93,29.83,10,9,2,21,8,24,0.00,5,,265
2013-2-6,41,28,14,30,22,9,93,75,61,30.21,30.13,30.04,10,9,5,15,7,,0.00,2,,131
2013-2-7,35,32,30,32,30,25,93,85,80,30.09,29.99,29.91,10,4,1,18,10,23,0.42,7,,88
2013-2-8,30,27,24,25,20,18,80,75,69,30.39,30.32,30.10,10,10,10,18,12,26,0.01,8,,32
2013-2-9,33,28,24,27,23,19,93,79,70,30.39,30.23,30.03,10,9,5,22,12,24,0.00,6,,148
2013-2-10,46,38,30,43,34,27,93,82,61,30.03,29.65,29.41,10,7,2,37,16,46,0.41,7,,164
2013-2-11,35,30,26,27,21,18,74,67,64,30.10,29.84,29.52,10,10,10,34,29,46,0.00,8,,280
2013-2-12,33,28,24,25,19,16,80,70,60,30.14,30.05,29.90,10,10,10,20,13,22,0.00,4,,257
2013-2-13,41,32,23,30,26,19,93,76,61,29.90,29.79,29.70,10,9,5,15,7,,0.00,2,,240
2013-2-14,39,34,28,30,27,23,93,74,56,30.05,29.84,29.66,10,10,4,24,14,29,0.00,6,,285
2013-2-15,28,22,15,25,12,7,86,63,47,30.26,30.21,30.06,10,10,10,21,13,26,0.00,1,,314
2013-2-16,24,17,10,12,8,3,85,67,46,30.26,30.21,30.16,10,10,10,16,10,20,0.00,2,,314
2013-2-17,35,22,10,19,12,1,79,63,47,30.20,30.09,29.87,10,10,10,21,10,24,0.00,0,,145
2013-2-18,55,37,19,39,26,10,87,71,51,29.86,29.66,29.52,10,9,2,34,17,40,0.21,4,,212
2013-2-19,17,12,6,10,4,-2,79,70,62,30.28,30.01,29.76,10,10,5,33,28,41,0.01,4,,301
2013-2-20,23,13,3,14,5,-2,85,73,59,30.43,30.37,30.30,10,10,10,14,9,,0.00,0,,338
2013-2-21,26,18,10,21,16,3,86,80,73,30.39,30.20,29.92,10,9,1,26,10,33,0.00,6,,72
2013-2-22,30,26,21,25,21,18,86,80,74,29.95,29.87,29.80,10,7,1,22,15,48,0.03,8,,203
2013-2-23,26,19,12,18,15,7,93,76,64,30.00,29.96,29.94,10,10,3,17,12,20,0.00,5,,264
2013-2-24,33,19,5,21,14,-2,93,77,56,30.14,30.09,30.01,10,7,2,9,4,,0.00,1,,107
2013-2-25,37,27,17,28,22,12,86,76,65,30.15,30.09,29.93,10,8,3,14,8,17,0.00,1,,77
2013-2-26,35,32,30,27,26,25,86,77,65,29.92,29.69,29.59,10,6,0,30,19,37,0.00,4,,45
2013-2-27,33,30,28,28,26,25,93,84,75,29.83,29.72,29.65,10,6,1,18,15,,0.00,4,,341
2013-2-28,35,32,28,27,26,23,86,79,70,30.12,30.01,29.84,10,10,4,16,11,,0.00,7,,354